Location: ?
(35.4554°N, 139.3092°E)
Time: 21:13:56
(UTC+00:00)

ASTRO E2 - Pass Details

Date: 21 April 2021
Orbit: 507 x 514 km, 31.4° (Epoch: 10 May)

Event Time Altitude Azimuth Distance (km) Brightness Sun altitude
Exits shadow 18:50:43 26° 241° (WSW) 1,013 3.6 -14.4°
Maximum altitude 18:52:26 43° 187° (S) 720 3.1 -14.0°
Drops below altitude 10° 18:56:10 10° 115° (ESE) 1,710 5.9 -13.4°
Sets 18:58:28 0° 108° (ESE) 2,595 7.0 -12.9°
